This is the latest recevied weather packets stored in our database for station/object W8LMG. If no packets are shown the sender has not sent any weather packets the latest 10 day(s).
| Time | Temp. | Humidity | Pressure | Rain* | Wind** | Luminosity | Snow |
|---|---|---|---|---|---|---|---|
| 1777764999 | 7.78° C | 47% | 1014.5 hPa | 0 mm | - | 17 W/m² | - |
| 1777764696 | 8.33° C | 48% | 1014.4 hPa | 0 mm | - | 20 W/m² | - |
| 1777764391 | 8.33° C | 46% | 1014.6 hPa | 0 mm | - | 24 W/m² | - |
| 1777764089 | 8.33° C | 45% | 1014.5 hPa | 0 mm | - | 26 W/m² | - |
| 1777763786 | 8.33° C | 49% | 1014.5 hPa | 0 mm | - | 33 W/m² | - |
| 1777763484 | 8.33° C | 44% | 1014.3 hPa | 0 mm | - | 41 W/m² | - |
| 1777763182 | 8.33° C | 45% | 1014.6 hPa | 0 mm | - | 36 W/m² | - |
| 1777762881 | 8.33° C | 45% | 1014.5 hPa | 0 mm | - | 39 W/m² | - |
| 1777762581 | 8.89° C | 44% | 1014.4 hPa | 0 mm | - | 43 W/m² | - |
| 1777762278 | 8.89° C | 46% | 1014.5 hPa | 0 mm | - | 50 W/m² | - |
| 1777761975 | 8.89° C | 46% | 1014.3 hPa | 0 mm | - | 52 W/m² | - |
| 1777761671 | 8.89° C | 46% | 1014.5 hPa | 0 mm | - | 47 W/m² | - |
| 1777761369 | 8.89° C | 48% | 1014.3 hPa | 0 mm | - | 47 W/m² | - |
| 1777761068 | 8.89° C | 46% | 1014.4 hPa | 0 mm | - | 43 W/m² | - |
| 1777760765 | 8.89° C | 46% | 1014.5 hPa | 0 mm | - | 45 W/m² | - |
| 1777760461 | 8.89° C | 45% | 1014.3 hPa | 0 mm | - | 49 W/m² | - |
| 1777760156 | 8.89° C | 45% | 1014.5 hPa | 0 mm | - | 54 W/m² | - |
| 1777759854 | 8.89° C | 48% | 1014.4 hPa | 0 mm | - | 78 W/m² | - |
| 1777759549 | 8.89° C | 44% | 1014.4 hPa | 0 mm | - | 75 W/m² | - |
| 1777759246 | 8.89° C | 43% | 1014.3 hPa | 0 mm | - | 54 W/m² | - |
| 1777758944 | 8.89° C | 45% | 1014.3 hPa | 0 mm | - | 52 W/m² | - |
| 1777758641 | 8.89° C | 44% | 1014.2 hPa | 0 mm | - | 60 W/m² | - |
| 1777758337 | 8.89° C | 44% | 1014.3 hPa | 0 mm | - | 73 W/m² | - |
| 1777758035 | 9.44° C | 45% | 1014.1 hPa | 0 mm | - | 91 W/m² | - |
| 1777757731 | 9.44° C | 45% | 1014.2 hPa | 0 mm | - | 127 W/m² | - |
* Rain latest hour (hover to see other rain measurements)
** Current wind speed in m/s (hover to see current wind gust speed)